This is the latest recevied weather packets stored in our database for station/object W4WYD-2. If no packets are shown the sender has not sent any weather packets the latest 10 day(s).
| Time | Temp. | Humidity | Pressure | Rain* | Wind** | Luminosity | Snow |
|---|---|---|---|---|---|---|---|
| 1787612178 | 27.22° C | 62% | 1017.1 hPa | 0 mm | - | 103 W/m² | - |
| 1787611874 | 27.78° C | 60% | 1017.3 hPa | 0 mm | - | 123 W/m² | - |
| 1787611570 | 27.78° C | 60% | 1017.2 hPa | 0 mm | - | 105 W/m² | - |
| 1787611266 | 28.33° C | 57% | 1017.1 hPa | 0 mm | - | 90 W/m² | - |
| 1787610961 | 28.89° C | 56% | 1017.3 hPa | 0 mm | - | 227 W/m² | - |
| 1787610657 | 28.89° C | 58% | 1017.1 hPa | 0 mm | - | 190 W/m² | - |
| 1787610352 | 28.89° C | 57% | 1017.1 hPa | 0 mm | - | 226 W/m² | - |
| 1787610050 | 28.89° C | 58% | 1017.2 hPa | 0 mm | - | 200 W/m² | - |
| 1787609745 | 29.44° C | 55% | 1017.1 hPa | 0 mm | - | 195 W/m² | - |
| 1787609439 | 29.44° C | 56% | 1016.8 hPa | 0 mm | - | 288 W/m² | - |
| 1787609133 | 29.44° C | 57% | 1016.9 hPa | 0 mm | - | 314 W/m² | - |
| 1787608829 | 30° C | 55% | 1016.9 hPa | 0 mm | - | 312 W/m² | - |
| 1787608528 | 30° C | 56% | 1016.7 hPa | 0 mm | - | 213 W/m² | - |
| 1787608224 | 30° C | 55% | 1017 hPa | 0 mm | - | 348 W/m² | - |
| 1787607921 | 31.11° C | 53% | 1016.7 hPa | 0 mm | - | 336 W/m² | - |
| 1787607617 | 30.56° C | 52% | 1016.9 hPa | 0 mm | - | 389 W/m² | - |
| 1787607314 | 30.56° C | 50% | 1016.9 hPa | 0 mm | - | 406 W/m² | - |
| 1787607010 | 30° C | 54% | 1017.1 hPa | 0 mm | - | 425 W/m² | - |
| 1787606708 | 30° C | 50% | 1016.9 hPa | 0 mm | - | 446 W/m² | - |
| 1787606402 | 30° C | 49% | 1017.2 hPa | 0 mm | - | 477 W/m² | - |
| 1787606097 | 30° C | 51% | 1017.3 hPa | 0 mm | - | 485 W/m² | - |
| 1787605796 | 30.56° C | 52% | 1017.1 hPa | 0 mm | - | 474 W/m² | - |
| 1787605490 | 30.56° C | 49% | 1017.1 hPa | 0 mm | - | 490 W/m² | - |
| 1787605186 | 30° C | 49% | 1017.1 hPa | 0 mm | - | 545 W/m² | - |
| 1787604886 | 30° C | 50% | 1017 hPa | 0 mm | - | 513 W/m² | - |
* Rain latest hour (hover to see other rain measurements)
** Current wind speed in m/s (hover to see current wind gust speed)